INTELSAT 16 (IS-16)

Last updated on Sun Aug 31 2025 00:02:47 GMT+0000 (Coordinated Universal Time)

1 36397U 10006A 25242.22566778 -.00000241 00000+0 00000+0 0 9999 2 36397 0.0382 299.9845 0002033 216.5174 187.2129 1.00271490 56738
UTC large
Height (km)
Speed (km/s)
/
Latitude / Longitude
Inclination (degrees)
Orbital Period (minutes)
Azimuth
Elevation
Range (km)
Doppler Factor

Next 0 passes for location: London (51.5072 / 0.1276)

Sorry there are no passes over London.